Tracking 19795 objects as of 20-Jul-2019
HD Live streaming from Space Station
objects crossing your sky now

METEOR 2-17 DEB

Track METEOR 2-17 DEB now!
10-day predictions


NORAD ID: 35369
Int'l Code: 1988-005AD
Perigee: 917.4 km
Apogee: 945.0 km
Inclination: 82.5 °
Period: 103.5 minutes
Semi major axis: 7302 km
RCS: 0.003 m2 (small)
Launch date: January 30, 1988
Source: Commonwealth of Independent States (former USSR) (CIS)
Launch site: PLESETSK MISSILE AND SPACE COMPLEX (PKMTR)

Note: This is SATELLITE DEBRIS
aabbcc
Your satellite tracking list
Your tracking list is empty




NASA's NSSDC Master Catalog

Two Line Element Set (TLE):
1 35369U 88005AD  19200.63583649  .00000537  00000-0  41376-3 0  9992
2 35369  82.5260 155.4313 0018907 342.8133 136.9206 13.91312003628132
Source of the keplerian elements: AFSPC